Weather History for Orangeburg, SC

Change the Weather History Date:

Friday, September 30, 2011

  Actual Average Record
Temperature  
Mean Temperature 75 °F 71 °F  
Max Temperature 88 °F 82 °F 92 °F (1954)
Min Temperature 61 °F 60 °F 40 °F (1967)
Degree Days  
Heating Degree Days 0 1  
Month to date heating degree days 1 2  
Since 1 July heating degree days 1 4  
Cooling Degree Days 10 6  
Month to date cooling degree days 327 301  
Year to date cooling degree days 2434 1994  
Growing Degree Days 24 (Base 50)    
Moisture  
Dew Point 57 °F    
Average Humidity 65    
Maximum Humidity 100    
Minimum Humidity 35    
Precipitation  
Precipitation 0.00 in 0.14 in 4.93 in (1959)
Month to date precipitation 4.21 3.79  
Year to date precipitation 32.24 37.10  
Sea Level Pressure  
Sea Level Pressure 29.78 in    
Wind  
Wind Speed 6 mph (WNW)    
Max Wind Speed 18 mph    
Max Gust Speed 23 mph    
Visibility 9 miles    
Events      
T = Trace of Precipitation, MM = Missing Value Source: NWS Daily Summary

Daily Weather History Graph

Daily Weather History Graph

Search for Another Location

Airport:

Trip Planner

Search our weather history database for the weather conditions in past years. The results will help you decide how hot, cold, wet, or windy it might be!

Date:

Astronomy

Sep. 30, 2011 Rise Set
Actual Time 7:16 AM EDT 7:09 PM EDT
Civil Twilight 6:52 AM EDT 7:34 PM EDT
Nautical Twilight 6:23 AM EDT 8:03 PM EDT
Astronomical Twilight 5:54 AM EDT 8:32 PM EDT
Moon 10:58 AM EDT (9/30) 9:25 PM EDT (9/30)
Length of Visible Light 12h 42m
Length of Day
11h 52m
Waxing Crescent, 15% of the Moon is Illuminated
Sep 30
Waxing Crescent
Oct 3
First Quarter
Oct 11
Full
Oct 19
Last Quarter
Oct 26
New

Hourly Weather History & Observations

Time (EDT) Temp. Heat Index Dew Point Humidity Pressure Visibility Wind Dir Wind Speed Gust Speed Precip Events Conditions
12:53 AM 66.9 °F - 64.0 °F 90% 29.84 in 9.0 mi Calm Calm - N/A   Mostly Cloudy
1:53 AM 66.0 °F - 63.0 °F 90% 29.83 in 8.0 mi Calm Calm - N/A   Partly Cloudy
2:53 AM 64.9 °F - 63.0 °F 93% 29.83 in 7.0 mi Calm Calm - N/A   Clear
3:53 AM 64.0 °F - 62.1 °F 93% 29.81 in 9.0 mi Calm Calm - N/A   Clear
4:53 AM 62.1 °F - 60.1 °F 93% 29.80 in 8.0 mi Calm Calm - N/A   Clear
5:53 AM 61.0 °F - 60.1 °F 97% 29.80 in 7.0 mi Calm Calm - N/A   Clear
6:53 AM 62.1 °F - 60.1 °F 93% 29.81 in 9.0 mi Calm Calm - N/A   Clear
7:53 AM 62.1 °F - 60.1 °F 93% 29.82 in 7.0 mi Calm Calm - N/A   Clear
8:53 AM 64.9 °F - 62.1 °F 90% 29.83 in 8.0 mi Calm Calm - N/A   Clear
9:53 AM 72.0 °F - 63.0 °F 73% 29.83 in 10.0 mi SW 3.5 mph - N/A   Clear
10:53 AM 79.0 °F - 62.1 °F 56% 29.82 in 10.0 mi WSW 10.4 mph - N/A   Clear
11:53 AM 82.9 °F 83.3 °F 61.0 °F 47% 29.81 in 10.0 mi West 11.5 mph 21.9 mph N/A   Scattered Clouds
12:53 PM 84.9 °F 85.0 °F 61.0 °F 44% 29.77 in 10.0 mi West 16.1 mph 20.7 mph N/A   Clear
2:53 PM 87.1 °F 86.5 °F 59.0 °F 39% 29.70 in 10.0 mi West 13.8 mph 19.6 mph N/A   Scattered Clouds
3:53 PM 87.1 °F 86.5 °F 59.0 °F 39% 29.68 in 10.0 mi West 12.7 mph - N/A   Mostly Cloudy
5:53 PM 82.9 °F 83.2 °F 60.1 °F 46% 29.68 in 10.0 mi WNW 9.2 mph - N/A   Clear
6:53 PM 80.1 °F - 50.0 °F 35% 29.70 in 10.0 mi WNW 11.5 mph - N/A   Clear
7:53 PM 73.9 °F - 44.1 °F 34% 29.72 in 10.0 mi WNW 5.8 mph - N/A   Clear
8:53 PM 69.1 °F - 48.0 °F 47% 29.75 in 10.0 mi Calm Calm - N/A   Clear
9:53 PM 71.1 °F - 44.1 °F 38% 29.77 in 10.0 mi NW 9.2 mph - N/A   Clear
10:53 PM 66.9 °F - 46.9 °F 49% 29.80 in 10.0 mi Variable 4.6 mph - N/A   Clear
11:53 PM 64.9 °F - 46.9 °F 52% 29.82 in 10.0 mi North 5.8 mph - N/A   Clear